Tracking 30995 objects as of 5-Jul-2025
HD Live streaming from Space Station
objects crossing your sky now

FENGYUN 1C DEB

Track FENGYUN 1C DEB now!
10-day predictions


NORAD ID: 35240
Int'l Code: 1999-025DQY
Perigee: 794.3 km
Apogee: 858.9 km
Inclination: 99.3 °
Period: 101.3 minutes
Semi major axis: 7197 km
RCS: 0.0037 m2 (small)
Launch date: May 10, 1999
Source: People's Republic of China (PRC)
Launch site: Taiyaun Space Center, China (TSC)

Note: This is SATELLITE DEBRIS
Your satellite tracking list
CZ-2D DEB
Track 1 satellite(s)




NASA's NSSDC Master Catalog

Two Line Element Set (TLE):
1 35240U 99025DQY 25184.30519984  .00002341  00000-0  10761-2 0  9995
2 35240  99.3388 137.0522 0044836 255.1301 104.4907 14.21745176908558
Source of the keplerian elements: AFSPC